Tracking 30970 objects as of 3-Jul-2025
HD Live streaming from Space Station
objects crossing your sky now

STARLINK-3308

Track STARLINK-3308 now!
10-day predictions
STARLINK-3308 is classified as:


NORAD ID: 50846
Int'l Code: 2022-001AV
Perigee: 546.1 km
Apogee: 547.7 km
Inclination: 53.2 °
Period: 95.4 minutes
Semi major axis: 6917 km
RCS: Unknown
Launch date: January 6, 2022
Source: United States (US)
Launch site: AIR FORCE EASTERN TEST RANGE (AFETR)
Your satellite tracking list
Your tracking list is empty




NASA's NSSDC Master Catalog

Two Line Element Set (TLE):
1 50846U 22001AV  25183.81483578 -.00000486  00000-0 -12478-4 0  9997
2 50846  53.2167 220.9675 0001099  79.1960 280.9155 15.08833997192545
Source of the keplerian elements: AFSPC